FW4321 Weather Reports


Display with metric or nautical units.
time (UTC)temp
F
wind
direction
speed
MPH
gust
MPH
rain 1hr
in
rain 24hr
in
rain mn
in
humidity
%
barometer
mb
20260506131526 68 53 2.0 9.0 0.00 0.00 0.00 68 1016.1
20260506130021 68 294 3.0 8.0 0.00 0.00 0.00 69 1015.9
20260506124519 67 80 1.0 8.0 0.00 0.00 0.00 71 1016.1
20260506123020 67 360 2.0 8.0 0.00 0.00 0.00 71 1016.1
20260506121516 66 360 2.0 9.0 0.00 0.00 0.00 72 1016.3
20260506120017 66 360 1.0 9.0 0.00 0.00 0.00 73 1016.3
20260506114520 65 360 2.0 15.0 0.00 0.00 0.00 74 1016.5
20260506113015 65 360 0.0 6.0 0.00 0.00 0.00 75 1016.3
20260506111515 65 360 1.0 5.0 0.00 0.00 0.00 76 1016.2
20260506110014 64 360 2.0 6.0 0.00 0.00 0.00 77 1016.3
20260506104516 64 360 0.0 5.0 0.00 0.00 0.00 78 1016.3
20260506103016 63 360 0.0 9.0 0.00 0.00 0.00 78 1016.3
20260506101522 63 360 1.0 5.0 0.00 0.00 0.00 79 1016.1
20260506100014 63 360 0.0 5.0 0.00 0.00 0.00 78 1016.3
20260506094515 63 360 1.0 4.0 0.00 0.00 0.00 79 1016.0
20260506093009 63 360 1.0 5.0 0.00 0.00 0.00 78 1016.1
20260506091507 63 360 2.0 6.0 0.00 0.00 0.00 78 1016.1
20260506090008 63 360 2.0 8.0 0.00 0.00 0.00 77 1016.5
20260506084512 64 360 1.0 5.0 0.00 0.00 0.00 77 1016.4
20260506083002 64 360 1.0 9.0 0.00 0.00 0.00 77 1016.4
20260506081506 64 360 2.0 6.0 0.00 0.00 0.00 76 1016.5
20260506073106 64 360 2.0 6.0 0.00 0.00 0.00 75 1016.6
20260506071612 64 360 1.0 6.0 0.00 0.00 0.00 74 1016.8
20260506070103 64 360 3.0 6.0 0.00 0.00 0.00 73 1016.7
20260506061548 67 333 1.0 6.0 0.00 0.00 0.00 69 1016.5
20260506044538 69 69 2.0 7.0 0.00 0.00 0.00 66 1017.1
20260506043036 69 246 2.0 14.0 0.00 0.00 0.00 65 1017.2
20260506041546 69 360 1.0 9.0 0.00 0.00 0.00 64 1017.2
20260506040033 69 15 2.0 8.0 0.00 0.00 0.00 63 1017.0
20260506034531 69 264 3.0 9.0 0.00 0.00 0.00 62 1017.1
20260506033032 70 15 4.0 12.0 0.00 0.00 0.00 62 1017.0
20260506031531 69 146 3.0 16.0 0.00 0.00 0.00 61 1016.9
20260506030033 70 130 2.0 9.0 0.00 0.00 0.00 61 1016.8
20260506024532 70 300 1.0 7.0 0.00 0.00 0.00 60 1017.0
20260506023028 70 192 3.0 12.0 0.00 0.00 0.00 60 1017.0
20260506021529 70 248 1.0 4.0 0.00 0.00 0.00 60 1016.9
20260506020028 70 302 1.0 9.0 0.00 0.00 0.00 60 1016.8
20260506014542 70 98 1.0 5.0 0.00 0.00 0.00 60 1016.8
20260506013030 70 53 1.0 4.0 0.00 0.00 0.00 60 1016.6
20260506011526 70 92 2.0 11.0 0.00 0.00 0.00 59 1016.6
20260506010028 71 88 3.0 10.0 0.00 0.00 0.00 58 1016.3
20260506004536 71 64 0.0 6.0 0.00 0.00 0.00 58 1016.2
20260506003025 71 88 1.0 4.0 0.00 0.00 0.00 57 1016.0
20260506001524 72 87 2.0 8.0 0.00 0.00 0.00 57 1015.8
20260506000034 73 117 2.0 8.0 0.00 0.00 0.00 55 1015.6
20260505234523 74 87 2.0 6.0 0.00 0.00 0.00 54 1015.4
20260505233021 74 71 1.0 8.0 0.00 0.00 0.00 54 1015.3
20260505231522 75 67 1.0 8.0 0.00 0.00 0.00 52 1014.9
20260505230021 76 67 1.0 10.0 0.00 0.00 0.00 50 1014.5
20260505224533 77 117 6.0 15.0 0.00 0.00 0.00 48 1014.2
20260505223028 78 92 5.0 10.0 0.00 0.00 0.00 46 1014.2
20260505221519 80 60 1.0 6.0 0.00 0.00 0.00 44 1014.0
20260505220032 82 76 3.0 8.0 0.00 0.00 0.00 41 1013.7
20260505214536 82 84 2.0 8.0 0.00 0.00 0.00 40 1013.6
20260505213025 81 244 3.0 9.0 0.00 0.00 0.00 41 1013.5
20260505211517 80 90 6.0 10.0 0.00 0.00 0.00 43 1013.5
20260505210017 82 76 5.0 11.0 0.00 0.00 0.00 40 1013.4
20260505204523 81 155 4.0 9.0 0.00 0.00 0.00 42 1013.6
20260505203011 80 78 4.0 10.0 0.00 0.00 0.00 45 1013.6
20260505201510 81 252 0.0 12.0 0.00 0.00 0.00 44 1013.6
20260505200010 80 88 2.0 8.0 0.00 0.00 0.00 45 1013.9
20260505194507 79 74 1.0 9.0 0.00 0.00 0.00 48 1014.3
20260505193010 79 5 1.0 8.0 0.00 0.00 0.00 47 1014.6
20260505191504 78 92 6.0 11.0 0.00 0.00 0.00 50 1014.9
20260505190118 77 82 9.0 16.0 0.00 0.00 0.00 50 1015.3
20260505184609 77 75 5.0 12.0 0.00 0.00 0.00 51 1015.5
20260505183056 77 61 7.0 12.0 0.00 0.00 0.00 51 1015.7
20260505181559 77 76 5.0 12.0 0.00 0.00 0.00 52 1015.8
20260505180055 78 94 3.0 9.0 0.00 0.00 0.00 51 1015.8
20260505174554 77 88 5.0 13.0 0.00 0.00 0.00 51 1015.8
20260505173052 78 73 6.0 11.0 0.00 0.00 0.00 49 1016.0
20260505171551 78 68 5.0 15.0 0.00 0.00 0.00 48 1016.0
20260505170057 79 360 1.0 11.0 0.00 0.00 0.00 46 1016.2
20260505164546 79 290 3.0 8.0 0.00 0.00 0.00 47 1016.4
20260505163043 79 137 0.0 8.0 0.00 0.00 0.00 48 1016.5
20260505161541 78 88 5.0 9.0 0.00 0.00 0.00 49 1016.7
20260505153033 75 279 2.0 8.0 0.00 0.00 0.00 51 1017.1
20260505151531 74 50 3.0 10.0 0.00 0.00 0.00 52 1017.3